Terminal Aerodrome Forecast
Issued by NWS Des Moines, IA

Home | Current Version | Previous Version | Text Only | Print | Product List | Glossary On
Versions: 1 2 3 4 5 6 7 8 9 10 11 12 13 14 15 16 17 18 19 20 21 22 23 24
000
FTUS43 KDMX 240520
TAFDSM
TAF
KDSM 240520Z 2406/2506 VRB04KT P6SM FEW150
     FM241400 16010G16KT P6SM FEW035 BKN150
     FM250000 15009KT P6SM SCT040 BKN120=

USA.gov is the U.S. government's official web portal to all federal, state and local government web resources and services.